Orange, MA

11:47 PM EST on December 06, 2019 (GMT -0500)
Orange Municipal

Weather History for KORE - October, 2019

Change the Weather History Date:

Thursday, October 31, 2019

  Actual Average Record
Temperature  
Mean Temperature 64 °F -  
Max Temperature 71 °F 51 °F 70 °F (1999)
Min Temperature 57 °F 30 °F 17 °F (2001)
Degree Days  
Heating Degree Days 2    
Growing Degree Days 14 (Base 50)    
Moisture  
Dew Point 60 °F    
Average Humidity 89    
Maximum Humidity 96    
Minimum Humidity 81    
Precipitation  
Precipitation 0.41 in - - ()
Sea Level Pressure  
Sea Level Pressure 29.89 in    
Wind  
Wind Speed 7 mph ()    
Max Wind Speed 26 mph    
Max Gust Speed 38 mph    
Visibility 5.2 miles    
Events Rain    
Averages and records for this station are not official NWS values.
T = Trace of Precipitation, MM = Missing Value Source: Averaged Metar Reports

Daily Weather History Graph

Daily Weather History Graph

Search for Another Location

Airport or City:

Astronomy

Oct. 31, 2019 Rise Set
Actual Time 7:21 AM EDT 5:43 PM EDT
Civil Twilight 6:52 AM EDT 6:12 PM EDT
Nautical Twilight 6:18 AM EDT 6:46 PM EDT
Astronomical Twilight 5:46 AM EDT 7:18 PM EDT
Moon 11:10 AM EDT (10/31) 8:33 PM EDT (10/31)
Length of Visible Light 11h 20m
Length of Day
10h 22m
Waxing Crescent, 15% of the Moon is Illuminated
Oct 31
Waxing Crescent
Nov 4
First Quarter
Nov 12
Full
Nov 19
Last Quarter
Nov 26
New

Hourly Weather History & Observations

Time (EDT) Temp. Dew Point Humidity Pressure Visibility Wind Dir Wind Speed Gust Speed Precip Events Conditions
12:13 AM 57.9 °F 55.9 °F 93% 30.11 in 2.0 mi Calm Calm - N/A   Overcast
12:52 AM 57.9 °F 55.9 °F 93% 30.09 in 2.0 mi Calm Calm - 0.01 in Rain Light Rain
1:47 AM 59.0 °F 55.4 °F 88% 30.07 in 2.5 mi Calm Calm - 0.01 in Rain Light Rain
1:52 AM 57.9 °F 55.9 °F 93% 30.07 in 2.0 mi Calm Calm - 0.01 in Rain Light Rain
1:57 AM 57.9 °F 55.9 °F 93% 30.06 in 1.2 mi Calm Calm - 0.00 in Rain Light Rain
2:05 AM 57.9 °F 55.9 °F 93% 30.06 in 1.0 mi Calm Calm - 0.01 in Rain Light Rain
2:09 AM 57.9 °F 55.9 °F 93% 30.06 in 1.5 mi Calm Calm - 0.01 in Rain Light Rain
2:22 AM 57.9 °F 55.9 °F 93% 30.05 in 1.2 mi Calm Calm - 0.01 in Rain Light Rain
2:34 AM 57.9 °F 55.9 °F 93% 30.04 in 2.0 mi ESE 3.5 mph - 0.01 in Rain Light Rain
2:49 AM 59.0 °F 57.2 °F 94% 30.04 in 4.0 mi SW 3.5 mph - 0.01 in   Overcast
2:52 AM 59.0 °F 57.0 °F 93% 30.05 in 4.0 mi SW 3.5 mph - 0.01 in   Overcast
3:06 AM 59.0 °F 57.0 °F 93% 30.04 in 2.5 mi Calm Calm - N/A   Overcast
3:52 AM 60.1 °F 59.0 °F 96% 30.03 in 4.0 mi South 6.9 mph - 0.01 in Rain Light Rain
4:35 AM 62.1 °F 57.9 °F 86% 30.00 in 10.0 mi South 5.8 mph - 0.01 in Rain Light Rain
4:52 AM 61.0 °F 57.9 °F 90% 30.01 in 9.0 mi South 8.1 mph - 0.02 in Rain Light Rain
5:52 AM 61.0 °F 57.9 °F 90% 30.00 in 7.0 mi South 12.7 mph 19.6 mph 0.03 in Rain Light Rain
6:08 AM 61.0 °F 57.9 °F 90% 29.99 in 5.0 mi South 9.2 mph - 0.01 in Rain Light Rain
6:52 AM 61.0 °F 57.9 °F 90% 29.99 in 5.0 mi South 11.5 mph - 0.02 in Rain Light Rain
7:52 AM 61.0 °F 57.9 °F 90% 29.96 in 4.0 mi South 13.8 mph 21.9 mph 0.01 in Rain Light Rain
8:05 AM 62.1 °F 57.0 °F 84% 29.96 in 10.0 mi South 10.4 mph 19.6 mph 0.00 in   Overcast
8:12 AM 61.0 °F 57.9 °F 90% 29.96 in 4.0 mi South 10.4 mph - 0.00 in Rain Light Rain
8:19 AM 61.0 °F 57.9 °F 90% 29.96 in 3.0 mi South 9.2 mph - 0.00 in Rain Light Rain
8:28 AM 61.0 °F 57.9 °F 90% 29.96 in 3.0 mi South 11.5 mph - 0.00 in Rain Light Rain
8:46 AM 60.8 °F 57.2 °F 88% 29.95 in 4.0 mi SSE 6.9 mph - 0.01 in Rain Light Rain
8:52 AM 61.0 °F 57.9 °F 90% 29.96 in 4.0 mi South 6.9 mph - 0.02 in Rain Light Rain
9:44 AM 61.0 °F 57.9 °F 90% 29.94 in 2.5 mi Variable 6.9 mph - 0.04 in Rain Light Rain
9:52 AM 61.0 °F 57.9 °F 90% 29.94 in 2.5 mi South 6.9 mph - 0.06 in Rain Rain
10:03 AM 61.0 °F 59.0 °F 93% 29.94 in 2.0 mi South 5.8 mph - 0.04 in Rain Rain
10:13 AM 62.1 °F 59.0 °F 90% 29.93 in 5.0 mi South 6.9 mph - 0.04 in Rain Light Rain
10:31 AM 62.1 °F 60.1 °F 93% 29.92 in 5.0 mi South 8.1 mph - 0.05 in Rain Light Rain
10:52 AM 63.0 °F 60.1 °F 90% 29.91 in 3.0 mi SSE 9.2 mph - 0.06 in Rain Light Rain
11:10 AM 63.0 °F 60.1 °F 90% 29.90 in 4.0 mi South 9.2 mph - 0.01 in Rain Light Rain
11:52 AM 64.9 °F 62.1 °F 90% 29.88 in 7.0 mi South 12.7 mph - 0.03 in Rain Rain
12:52 PM 66.9 °F 63.0 °F 87% 29.83 in 8.0 mi South 12.7 mph 25.3 mph 0.01 in Rain Light Rain
1:52 PM 68.0 °F 64.0 °F 87% 29.80 in 2.5 mi South 13.8 mph 24.2 mph 0.02 in Rain Light Rain
1:57 PM 68.0 °F 64.9 °F 90% 29.80 in 3.0 mi South 15.0 mph 21.9 mph 0.01 in Rain Light Rain
2:31 PM 68.0 °F 64.0 °F 87% 29.78 in 10.0 mi South 18.4 mph 28.8 mph 0.02 in Rain Light Rain
2:52 PM 68.0 °F 64.0 °F 87% 29.78 in 9.0 mi South 18.4 mph 27.6 mph 0.02 in Rain Light Rain
3:11 PM 68.0 °F 64.0 °F 87% 29.77 in 6.0 mi South 18.4 mph 29.9 mph 0.01 in Rain Light Rain
3:52 PM 68.0 °F 64.0 °F 87% 29.76 in 8.0 mi South 13.8 mph 24.2 mph 0.01 in Rain Light Rain
4:52 PM 68.0 °F 64.0 °F 87% 29.73 in 9.0 mi South 17.3 mph 25.3 mph 0.00 in   Overcast
5:07 PM 69.1 °F 64.0 °F 84% 29.72 in 10.0 mi South 21.9 mph 29.9 mph N/A   Overcast
5:52 PM 68.0 °F 64.0 °F 87% 29.70 in 9.0 mi South 21.9 mph 34.5 mph 0.00 in Rain Light Rain
6:52 PM 70.0 °F 64.0 °F 81% 29.68 in 8.0 mi South 19.6 mph 28.8 mph 0.00 in Rain Light Rain
7:17 PM 69.1 °F 64.9 °F 87% 29.68 in 6.0 mi South 18.4 mph 29.9 mph 0.02 in Rain Rain
7:52 PM 69.1 °F 64.9 °F 87% 29.66 in 7.0 mi South 23.0 mph 29.9 mph 0.03 in Rain Light Rain
8:52 PM 69.1 °F 64.9 °F 87% 29.63 in 7.0 mi South 18.4 mph 29.9 mph 0.00 in Rain Light Rain
9:33 PM 70.0 °F 64.9 °F 84% 29.60 in 10.0 mi South 21.9 mph 32.2 mph 0.00 in   Overcast
9:52 PM 70.0 °F 64.9 °F 84% 29.59 in 9.0 mi South 26.5 mph 36.8 mph 0.00 in Rain Light Rain
10:11 PM 70.0 °F 64.9 °F 84% 29.60 in 6.0 mi South 19.6 mph 27.6 mph 0.01 in Rain Light Rain
10:52 PM 69.1 °F 66.0 °F 90% 29.57 in 6.0 mi South 23.0 mph 31.1 mph 0.01 in Rain Light Rain
11:52 PM 70.0 °F 64.9 °F 84% 29.52 in 9.0 mi South 21.9 mph 38.0 mph 0.02 in Rain Light Rain